Location: Zagreb
(45.8000°N, 16.0000°E)
Time: 14:31:53
(UTC+02:00)

Transit 2A - Pass Details

Date: 10 August 2022
Orbit: 601 x 956 km, 66.7° (Epoch: 25 September)

Event Time Altitude Azimuth Distance (km) Brightness Sun altitude
Rises 14:38:22 0° 259° (W) 3,077 9.5 53.5°
Reaches altitude 10° 14:41:31 10° 280° (W) 2,098 8.7 53.1°
Maximum altitude 14:44:36 17° 321° (NW) 1,628 7.9 52.8°
Drops below altitude 10° 14:47:35 10° 3° (N) 2,006 8.0 52.4°
Sets 14:50:31 0° 24° (NNE) 2,884 8.6 52.0°
